Location: Cisewo
(53.3833°N, 14.9000°E)
Time: 11:37:28
(UTC+00:00)

SL-16 R/B - Pass Details

Date: 18 April 2021
Orbit: 840 x 849 km, 71.0° (Epoch: 14 May)

Event Time Altitude Azimuth Distance (km) Brightness Sun altitude
Rises 18:42:35 0° 326° (NW) 3,426 6.6 -5.7°
Reaches altitude 10° 18:45:28 10° 339° (NNW) 2,487 5.5 -6.1°
Maximum altitude 18:50:14 26° 35° (NE) 1,606 3.6 -6.7°
Drops below altitude 10° 18:54:58 10° 92° (E) 2,475 4.1 -7.3°
Enters shadow 18:55:54 - 97° (E) 2,764 4.3 -7.5°
